User: anonymous   Login
Location: Unspecified
(0.0000°N, 0.0000°E)
Time: 09:36:41
(UTC+00:00)
Language:

Intelsat II F-3 - Orbit

View from above orbital plane
View from above orbital plane
View from above satellite
View from above satellite

Ground track
Ground track

The orbit data is extracted from the following two-line orbital elements,

1  2717U 67026A   17295.77938968 -.00000350 +00000-0 +00000-0 0  9998
2  2717 003.5151 303.9196 0024583 291.1455 180.2505 01.00376689092220
Epoch (UTC): 22 October 2017 18:42:19
Eccentricity: 0.0024583
inclination: 3.5151°
perigee height: 35653 km
apogee height: 35860 km
right ascension of ascending node: 303.9196°
argument of perigee: 291.1455°
revolutions per day: 1.00376689
mean anomaly at epoch: 180.2505°
orbit number at epoch: 9222

The dashed part of the orbit path shows where the satellite is in the earth's shadow,  

DLR